Weather History for Lafayette, LA

Change the Weather History Date:

Friday, October 26, 2012

  Actual Average Record
Temperature  
Mean Temperature 75 °F 68 °F  
Max Temperature 85 °F 78 °F 91 °F (1919)
Min Temperature 64 °F 57 °F 36 °F (1903)
Degree Days  
Heating Degree Days 0 2  
Month to date heating degree days 8 22  
Since 1 July heating degree days 8 23  
Cooling Degree Days 10 4  
Month to date cooling degree days 183 181  
Year to date cooling degree days 3055 2869  
Growing Degree Days 18 (Base 50)    
Moisture  
Dew Point 60 °F    
Average Humidity 78    
Maximum Humidity 100    
Minimum Humidity 55    
Precipitation  
Precipitation 0.00 in 0.18 in 2.39 in (2006)
Month to date precipitation 0.34 4.41  
Year to date precipitation 57.99 49.75  
Snow  
Snow 0.00 in 0.00 in 0.00 in ()
Month to date snowfall 0.0 0.0  
Since 1 July snowfall 0.0 0.0  
Since 1 September snowfall 0.0 0.0  
Snow Depth 0.00 in    
Sea Level Pressure  
Sea Level Pressure 30.00 in    
Wind  
Wind Speed 5 mph (North)    
Max Wind Speed 23 mph    
Max Gust Speed 29 mph    
Visibility 8 miles    
Events      
T = Trace of Precipitation, MM = Missing Value Source: NWS Daily Summary

Daily Weather History Graph

Daily Weather History Graph

Search for Another Location

Airport:

Trip Planner

Search our weather history database for the weather conditions in past years. The results will help you decide how hot, cold, wet, or windy it might be!

Date:

Astronomy

Oct. 26, 2012 Rise Set
Actual Time 7:17 AM CDT 6:25 PM CDT
Civil Twilight 6:53 AM CDT 6:49 PM CDT
Nautical Twilight 6:25 AM CDT 7:17 PM CDT
Astronomical Twilight 5:57 AM CDT 7:45 PM CDT
Moon 4:32 PM CDT (10/26) 4:25 AM CDT (10/26)
Length of Visible Light 11h 56m
Length of Day
11h 07m
Waxing Gibbous, 91% of the Moon is Illuminated
Oct 26
Waxing Gibbous
Oct 29
Full
Nov 6
Last Quarter
Nov 13
New
Nov 20
First Quarter

Hourly Weather History & Observations

Time (CDT) Temp. Heat Index Dew Point Humidity Pressure Visibility Wind Dir Wind Speed Gust Speed Precip Events Conditions
1:53 AM 66.9 °F - 64.9 °F 93% 29.94 in 10.0 mi Calm Calm - N/A   Clear
2:53 AM 66.0 °F - 63.0 °F 90% 29.95 in 10.0 mi Calm Calm - N/A   Clear
3:53 AM 64.9 °F - 64.0 °F 97% 29.94 in 7.0 mi NE 3.5 mph - N/A   Clear
4:53 AM 64.9 °F - 63.0 °F 93% 29.95 in 6.0 mi Calm Calm - N/A   Clear
5:51 AM 64.4 °F - 62.6 °F 94% 29.95 in 2.5 mi Calm Calm - N/A   Clear
5:53 AM 64.9 °F - 63.0 °F 93% 29.96 in 2.5 mi Calm Calm - N/A   Clear
5:59 AM 64.4 °F - 62.6 °F 94% 29.95 in 5.0 mi Calm Calm - N/A   Partly Cloudy
6:53 AM 64.9 °F - 63.0 °F 93% 29.96 in 7.0 mi NNW 4.6 mph - N/A   Clear
7:21 AM 64.4 °F - 60.8 °F 88% 29.97 in 7.0 mi Calm Calm - N/A   Scattered Clouds
7:30 AM 64.4 °F - 62.6 °F 94% 29.97 in 3.0 mi North 3.5 mph - N/A   Mostly Cloudy
7:53 AM 66.0 °F - 64.0 °F 93% 29.98 in 3.0 mi Calm Calm - N/A   Overcast
8:38 AM 69.8 °F - 66.2 °F 88% 30.00 in 3.0 mi North 3.5 mph - N/A   Overcast
8:53 AM 70.0 °F - 66.9 °F 90% 30.00 in 3.0 mi North 5.8 mph - N/A   Overcast
9:53 AM 71.6 °F - 69.8 °F 94% 30.00 in 8.0 mi NNE 4.6 mph - N/A   Overcast
10:53 AM 77.0 °F - 69.1 °F 76% 30.00 in 10.0 mi NNE 4.6 mph - N/A   Overcast
11:53 AM 79.0 °F - 68.0 °F 69% 30.00 in 10.0 mi North 4.6 mph - N/A   Overcast
12:00 PM 80.6 °F 83.2 °F 68.0 °F 65% 30.00 in 10.0 mi NNW 5.8 mph - N/A   Mostly Cloudy
12:53 PM 82.0 °F 84.1 °F 66.0 °F 58% 29.99 in 10.0 mi NNE 5.8 mph - N/A   Mostly Cloudy
1:53 PM 82.0 °F 83.8 °F 64.9 °F 56% 29.97 in 10.0 mi NNW 9.2 mph - N/A   Mostly Cloudy
2:53 PM 77.0 °F - 64.9 °F 66% 29.97 in 10.0 mi North 18.4 mph - 0.01 in   Mostly Cloudy
3:53 PM 75.9 °F - 63.0 °F 64% 29.96 in 10.0 mi NNW 12.7 mph - N/A   Overcast
4:53 PM 73.9 °F - 62.1 °F 66% 29.97 in 10.0 mi NNW 17.3 mph - N/A   Overcast
5:53 PM 70.0 °F - 57.9 °F 65% 29.99 in 10.0 mi North 18.4 mph - N/A   Scattered Clouds
6:53 PM 63.0 °F - 54.0 °F 72% 30.02 in 10.0 mi North 16.1 mph 26.5 mph N/A   Mostly Cloudy
7:02 PM 62.6 °F - 53.6 °F 72% 30.03 in 10.0 mi North 18.4 mph 26.5 mph N/A   Mostly Cloudy
7:53 PM 60.8 °F - 51.8 °F 72% 30.05 in 10.0 mi North 15.0 mph 23.0 mph N/A   Overcast
8:53 PM 57.0 °F - 50.0 °F 77% 30.08 in 10.0 mi North 18.4 mph - N/A   Overcast
9:12 PM 55.4 °F - 50.0 °F 82% 30.09 in 10.0 mi North 20.7 mph 25.3 mph N/A   Overcast
9:53 PM 55.0 °F - 48.9 °F 80% 30.10 in 10.0 mi North 15.0 mph 23.0 mph N/A   Overcast
10:53 PM 54.0 °F - 46.9 °F 77% 30.09 in 10.0 mi North 17.3 mph 25.3 mph N/A   Overcast
11:04 PM 53.6 °F - 46.4 °F 77% 30.10 in 10.0 mi North 18.4 mph 27.6 mph N/A   Overcast
11:53 PM 53.1 °F - 46.0 °F 77% 30.10 in 10.0 mi North 15.0 mph - N/A   Overcast